Regional Weather Roundup
Issued by NWS

Home | Current Version | Previous Version | Graphics & Text | Print | Product List | Glossary On
Versions: 1 2 3 4 5 6 7 8 9 10 11 12 13 14 15 16 17 18 19 20 21 22 23 24 25 26 27 28 29 30 31 32 33 34 35 36 37 38 39 40 41 42 43 44 45 46 47 48 49 50
274
ASUS43 KDTX 280601
RWRMI
MICHIGAN HOURLY REGIONAL WEATHER ROUNDUP
NATIONAL WEATHER SERVICE DETROIT/PONTIAC MI
200 AM EDT THU JUL 28 2016

NOTE: "FAIR" INDICATES FEW OR NO CLOUDS BELOW 12,000 FEET WITH NO
SIGNIFICANT WEATHER AND/OR OBSTRUCTION TO VISIBILITY.

MIZ047>049-052>055-059>063-066>070-074>076-081>083-280700-
SOUTHEAST LOWER MICHIGAN

CITY           SKY/WX    TMP DP  RH WIND       PRES   REMARKS
ADRIAN         CLEAR     67  65  93 CALM      29.95F
6HR MIN TEMP:  67; 6HR MAX TEMP:  84;

ALMA           FOG       64  64 100 W7        29.95F VSB 3/4
ANN ARBOR      CLEAR     67  64  90 NW6       29.94F
BAD AXE        FOG       62  62  99 CALM      29.96F VSB 1
CARO           PTCLDY    64  63  98 CALM      29.94F
DETROIT CITY   CLEAR     75  69  81 N5        29.93S
6HR MIN TEMP:  75; 6HR MAX TEMP:  85;

DETROIT        PTCLDY    74  64  71 NW3       29.93F
6HR MIN TEMP:  74; 6HR MAX TEMP:  87;

FLINT          CLEAR     68  63  84 CALM      29.95F
6HR MIN TEMP:  67; 6HR MAX TEMP:  80;

GROSSE ILE     CLEAR     73  67  82 CALM      29.91F
6HR MIN TEMP:  72; 6HR MAX TEMP:  81;

HILLSDALE      CLEAR     64  61  93 CALM      29.96F
6HR MIN TEMP:  59; 6HR MAX TEMP:  87;

HOWELL         CLEAR     65  63  91 CALM      29.95F

CITY           SKY/WX    TMP DP  RH WIND       PRES   REMARKS
JACKSON        CLEAR     68  65  90 CALM      29.96F
6HR MIN TEMP:  65; 6HR MAX TEMP:  78;

LAMBERTVILLE   CLEAR     69  66  88 CALM      29.93F
6HR MIN TEMP:  69; 6HR MAX TEMP:  85;

LANSING        CLEAR     67  62  84 CALM      29.96F
6HR MIN TEMP:  67; 6HR MAX TEMP:  75;

LAPEER         FAIR      63  61  94 CALM      29.96S
6HR MIN TEMP:  63; 6HR MAX TEMP:  74;

MASON          CLEAR     64  62  94 SE5       29.95F
MONROE         CLEAR     69  66  89 CALM      29.92F
6HR MIN TEMP:  69; 6HR MAX TEMP:  83;

MT. CLEMENS    CLEAR     69  65  86 NW6       29.91F
6HR MIN TEMP:  69; 6HR MAX TEMP:  81; 6HR PCP: TRACE;

PONTIAC        CLEAR     70  65  84 CALM      29.94F
6HR MIN TEMP:  70; 6HR MAX TEMP:  79;

PORT HOPE        N/A     66  65  96 W3        29.94F
6HR MIN TEMP:  65; 6HR MAX TEMP:  74;

PORT HURON     PTCLDY    64  64 100 NW3       29.94F
TRI CITIES     PTCLDY    68  67  96 NW5       29.95F
6HR MIN TEMP:  66; 6HR MAX TEMP:  73;

MIDLAND        FOG       65  65 100 CALM      29.94F VSB 1/2
6HR MIN TEMP:  64; 6HR MAX TEMP:  72; 6HR PCP:  0.01;

TROY           CLEAR     74  64  70 CALM      29.95F
SAGINAW HB     PTCLDY    64  63  94 CALM      29.94F
$$
MIZ043>046-050>051-056>058-064>065-071>073-077>080-280700-
SOUTHWEST LOWER MICHIGAN

CITY           SKY/WX    TMP DP  RH WIND       PRES   REMARKS
BATTLE CREEK   CLEAR     67  64  90 S3        29.96F
6HR MIN TEMP:  67; 6HR MAX TEMP:  74;

BENTON HARBOR  CLEAR     69  65  86 W3        29.93S
6HR MIN TEMP:  68; 6HR MAX TEMP:  82;

BIG RAPIDS     CLOUDY    68  68 100 CALM      29.96S FOG
6HR MIN TEMP:  68; 6HR MAX TEMP:  74;

COLDWATER      CLEAR     65  65  99 CALM      29.95F
6HR MIN TEMP:  65; 6HR MAX TEMP:  83;

FREMONT        FAIR      69  69 100 CALM      29.95F
HOLLAND        CLOUDY    71  65  81 CALM      29.95S
6HR MIN TEMP:  69; 6HR MAX TEMP:  81;

GRAND RAPIDS   CLEAR     69  63  81 CALM      29.95F
6HR MIN TEMP:  68; 6HR MAX TEMP:  76;

IONIA          FAIR      65  63  93 CALM      29.95S
6HR MIN TEMP:  64; 6HR MAX TEMP:  73;

KALAMAZOO      CLOUDY    70  63  78 E3        29.94F
6HR MIN TEMP:  69; 6HR MAX TEMP:  83;

LUDINGTON      CLOUDY    69  65  89 CALM      29.94S
6HR MIN TEMP:  67; 6HR MAX TEMP:  75;

MARSHALL       CLEAR     66  65  98 CALM      29.95F
6HR MIN TEMP:  66; 6HR MAX TEMP:  76;

MOUNT PLEASANT PTCLDY    66  66  99 CALM      29.94F FOG
6HR MIN TEMP:  65; 6HR MAX TEMP:  73;

MUSKEGON       PTCLDY    72  69  90 E3        29.94F
6HR MIN TEMP:  71; 6HR MAX TEMP:  82;

SOUTH HAVEN    PTCLDY    65  65  97 CALM      29.94S
$$
MIZ016>042-280700-
NORTHERN LOWER MICHIGAN

CITY           SKY/WX    TMP DP  RH WIND       PRES   REMARKS
ALPENA         CLOUDY    68  65  90 W3        29.96S
6HR MIN TEMP:  67; 6HR MAX TEMP:  75; 6HR PCP:  0.40;

BEAVER ISLAND  CLOUDY    65  55  71 CALM      30.00S
6HR MIN TEMP:  65; 6HR MAX TEMP:  72;

BELLAIRE       CLOUDY    70  60  69 N3        29.98S
6HR MIN TEMP:  69; 6HR MAX TEMP:  77;

CADILLAC       CLOUDY    67  64  91 CALM      29.97F
CHARLEVOIX     CLOUDY    69  62  77 N8        30.02S
6HR MIN TEMP:  69; 6HR MAX TEMP:  74;

FRANKFORT      CLOUDY    71  66  85 CALM      29.96S
GAYLORD        CLOUDY    69  53  56 CALM      30.00R
6HR MIN TEMP:  69; 6HR MAX TEMP:  77;

GRAYLING       CLOUDY    70  65  85 NE5       29.99S
6HR MIN TEMP:  70; 6HR MAX TEMP:  79;

HARBOR SPRINGS CLOUDY    67  57  72 NW5       29.99R
HOUGHTON LAKE  CLOUDY    68  67  96 CALM      29.98S
6HR MIN TEMP:  68; 6HR MAX TEMP:  76; 6HR PCP: TRACE;

MANISTEE       CLOUDY    69  64  84 CALM      29.95F
OSCODA         DRIZZLE   66  65  97 CALM      29.95S
6HR MIN TEMP:  66; 6HR MAX TEMP:  72;

PELLSTON       CLOUDY    64  57  78 W3        29.99R
6HR MIN TEMP:  64; 6HR MAX TEMP:  74;

ROGERS CITY    CLOUDY    67  58  72 NW8       29.98S
TRAVERSE CITY  CLOUDY    73  68  84 N8        29.95S
6HR MIN TEMP:  73; 6HR MAX TEMP:  78;

$$
MIZ007>008-015-280700-
EASTERN UPPER MICHIGAN

CITY           SKY/WX    TMP DP  RH WIND       PRES   REMARKS
KINROSS        CLOUDY    61  56  83 W6        29.99S
6HR MIN TEMP:  61; 6HR MAX TEMP:  68;

MACKINAC ISLAN CLOUDY    64  55  72 N6        29.98S
6HR MIN TEMP:  64; 6HR MAX TEMP:  70;

S. S. MARIE    LGT RAIN  63  58  83 NW5       29.97S
6HR MIN TEMP:  61; 6HR MAX TEMP:  70; 6HR PCP: TRACE;

$$
MIZ004>006-011>014-085-280700-
CENTRAL UPPER MICHIGAN

CITY           SKY/WX    TMP DP  RH WIND       PRES   REMARKS
ESCANABA       CLOUDY    61  57  88 N3        30.01S
6HR MIN TEMP:  61; 6HR MAX TEMP:  72;

MENOMINEE      RAIN     N/A N/A N/A NE7       30.01S
SAWYER-GWINN   DRIZZLE   59  57  92 CALM      30.04S
6HR MIN TEMP:  59; 6HR MAX TEMP:  62; 6HR PCP:  0.04;

$$
MIZ001>003-009>011-084-280700-
WESTERN UPPER MICHIGAN

CITY           SKY/WX    TMP DP  RH WIND       PRES   REMARKS
IRON MOUNTAIN  LGT RAIN  61  57  87 CALM      30.02S
6HR MIN TEMP:  61; 6HR MAX TEMP:  71; 6HR PCP: TRACE;

HOUGHTON       CLEAR     55  52  89 N5        30.03S
6HR MIN TEMP:  55; 6HR MAX TEMP:  63;

IRONWOOD       CLOUDY    61  59  94 NE5       30.03R
6HR MIN TEMP:  61; 6HR MAX TEMP:  64; 6HR PCP:  0.01;

$$

ABBREVIATIONS USED IN REMARKS
   TC - TEMPERATURE IN CELSIUS
  WCI - WIND CHILL INDEX
   HX - HEAT INDEX
  VSB - VISIBILITY





USA.gov is the U.S. government's official web portal to all federal, state and local government web resources and services.